Ft. Stewart, GA

12:31 PM EDT on September 22, 2017 (GMT -0400)
Wright Army Air Field

Weather History for KLHW - November, 2014

Change the Weather History Date:

Saturday, November 29, 2014

  Actual Average Record
Temperature  
Mean Temperature 46 °F -  
Max Temperature 63 °F 70 °F 82 °F (1990)
Min Temperature 29 °F 47 °F 29 °F (2013)
Degree Days  
Heating Degree Days 19    
Moisture  
Dew Point 33 °F    
Average Humidity 72    
Maximum Humidity 94    
Minimum Humidity 25    
Precipitation  
Precipitation 0.00 in - - ()
Sea Level Pressure  
Sea Level Pressure 30.32 in    
Wind  
Wind Speed 0 mph (South)    
Max Wind Speed 5 mph    
Max Gust Speed -    
Visibility 10 miles    
Events      
Averages and records for this station are not official NWS values.
T = Trace of Precipitation, MM = Missing Value Source: NWS Daily Summary

Daily Weather History Graph

Daily Weather History Graph

Search for Another Location

Airport or City:

Trip Planner

Search our weather history database for the weather conditions in past years. The results will help you decide how hot, cold, wet, or windy it might be!

Date:

Astronomy

Nov. 29, 2014 Rise Set
Actual Time 7:06 AM EST 5:22 PM EST
Civil Twilight 6:40 AM EST 5:48 PM EST
Nautical Twilight 6:10 AM EST 6:18 PM EST
Astronomical Twilight 5:40 AM EST 6:48 PM EST
Moon 12:51 PM EST (11/29) No Moon Set
Length of Visible Light 11h 08m
Length of Day
10h 15m
First Quarter, 53% of the Moon is Illuminated
Nov 29
First Quarter
Dec 6
Full
Dec 14
Last Quarter
Dec 21
New
Dec 28
First Quarter

Hourly Weather History & Observations

Time (EST) Temp. Dew Point Humidity Pressure Visibility Wind Dir Wind Speed Gust Speed Precip Events Conditions
12:58 AM 31.8 °F 30.0 °F 93% 30.32 in 10.0 mi Calm Calm - N/A   Clear
1:58 AM 31.3 °F 29.5 °F 93% 30.32 in 10.0 mi Calm Calm - N/A   Clear
2:58 AM 31.3 °F 29.5 °F 93% 30.32 in 10.0 mi Calm Calm - N/A   Clear
3:58 AM 30.4 °F 28.6 °F 93% 30.32 in 10.0 mi Calm Calm - N/A   Clear
4:58 AM 29.8 °F 28.0 °F 93% 30.33 in 10.0 mi Calm Calm - N/A   Clear
5:58 AM 30.0 °F 28.2 °F 93% 30.33 in 10.0 mi Calm Calm - N/A   Clear
6:58 AM 29.7 °F 27.9 °F 93% 30.34 in 10.0 mi Calm Calm - N/A   Clear
7:58 AM 32.2 °F 30.0 °F 92% 30.36 in 10.0 mi Calm Calm - N/A   Clear
8:58 AM 41.5 °F 36.5 °F 82% 30.38 in 10.0 mi Calm Calm - N/A   Clear
9:58 AM 47.7 °F 35.6 °F 63% 30.39 in 10.0 mi Calm Calm - N/A   Clear
10:58 AM 52.3 °F 34.5 °F 51% 30.38 in 10.0 mi Calm Calm - N/A   Clear
11:58 AM 56.3 °F 32.0 °F 40% 30.35 in 10.0 mi Variable 2.3 mph - N/A   Clear
12:58 PM 60.3 °F 31.6 °F 34% 30.32 in 10.0 mi SSW 3.5 mph - N/A   Clear
1:58 PM 61.7 °F 29.8 °F 30% 30.30 in 10.0 mi Variable 1.2 mph - N/A   Clear
2:58 PM 62.8 °F 27.0 °F 26% 30.29 in 10.0 mi Calm Calm - N/A   Clear
3:58 PM 63.1 °F 27.0 °F 25% 30.28 in 10.0 mi SW 4.6 mph - N/A   Clear
4:58 PM 60.3 °F 31.1 °F 33% 30.28 in 10.0 mi Calm Calm - N/A   Clear
5:58 PM 52.5 °F 41.4 °F 66% 30.29 in 10.0 mi ESE 2.3 mph - N/A   Clear
6:58 PM 47.3 °F 39.9 °F 76% 30.30 in 10.0 mi Calm Calm - N/A   Clear
7:58 PM 45.9 °F 41.2 °F 84% 30.30 in 10.0 mi Calm Calm - N/A   Clear
8:58 PM 43.3 °F 41.0 °F 91% 30.31 in 10.0 mi Calm Calm - N/A   Clear
9:58 PM 42.6 °F 40.5 °F 92% 30.31 in 10.0 mi Calm Calm - N/A   Clear
10:58 PM 41.2 °F 39.4 °F 93% 30.31 in 10.0 mi Calm Calm - N/A   Clear
11:58 PM 40.6 °F 39.0 °F 94% 30.31 in 10.0 mi Calm Calm - N/A   Clear